{"data":{"norad_id":68606,"intl_designator":"2026-073E","name":"STARLINK-37253","alt_names":[],"object_type":"PAYLOAD","status":"ACTIVE","operator":null,"country":"US","launch_date":"2026-04-07","launch_site_code":"AFWTR","launch_vehicle":null,"mission":null,"orbit_class":"UNKNOWN","rcs_meters":null,"size_class":null,"mass_kg":null,"dimensions":null,"purposes":["comms"],"wikipedia_slug":null,"has_3d_model":false,"image_url":null,"decayed_at":null,"tle_current":{"epoch":"2026-09-19T23:28:41.828160Z","epoch_age_seconds":89077,"freshness":"FRESH","line1":"1 68606U 26073E   26262.97826190  .00011668  00000+0  36312-3 0  9993","line2":"2 68606  97.2868 101.0471 0001679  95.4018 264.7417 15.33448964 25669","mean_motion":15.33448964,"eccentricity":0.0001679,"inclination_deg":97.2868,"raan_deg":101.0471,"arg_perigee_deg":95.4018,"mean_anomaly_deg":264.7417,"bstar":0.00036312,"rev_number":2566,"period_min":93.905961907187,"perigee_km":464.38232850738,"apogee_km":466.68043234952,"semimajor_km":6843.6683804284,"source":"CELESTRAK","updated_at":"2026-09-20T09:00:43.942010Z"}}}